{"data":{"norad_id":45429,"intl_designator":"2020-020F","name":"ONEWEB-0081","alt_names":[],"object_type":"PAYLOAD","status":"ACTIVE","operator":null,"country":"UK","launch_date":"2020-03-21","launch_site_code":"TYMSC","launch_vehicle":null,"mission":null,"orbit_class":"UNKNOWN","rcs_meters":null,"size_class":null,"mass_kg":null,"dimensions":null,"purposes":["comms"],"wikipedia_slug":null,"has_3d_model":false,"image_url":null,"decayed_at":null,"tle_current":{"epoch":"2026-09-20T01:31:06.567744Z","epoch_age_seconds":52089,"freshness":"FRESH","line1":"1 45429U 20020F   26263.06327046 -.00000224  00000+0 -66837-3 0  9997","line2":"2 45429  87.8969   2.2093 0001991 104.2957 255.8392 13.11414535315176","mean_motion":13.11414535,"eccentricity":0.0001991,"inclination_deg":87.8969,"raan_deg":2.2093,"arg_perigee_deg":104.2957,"mean_anomaly_deg":255.8392,"bstar":-0.00066837,"rev_number":31517,"period_min":109.80509683004,"perigee_km":1216.1796747602,"apogee_km":1219.2043338697,"semimajor_km":7595.829004315,"source":"CELESTRAK","updated_at":"2026-09-20T09:00:44.552990Z"}}}